SAS295 ESSA-EKCH

Flight info

Callsign SAS295
Flight time 0h 54m
Altitude 38000
Route PETEV N872 ELPAX DCT TOKSI N872 ERNOV
Aircraft A20N/M-SDE2E3FGHIRWXY/LB1

Departure

Time 2026-05-06 18:40
Airport Stockholm-Arlanda Airport (ESSA)

Arrival

Time 2026-05-06 19:34
Airport Copenhagen Kastrup Airport (EKCH)
Time Latitude Longitude Altitude Speed Heading
2026-05-06 18:23 59.65200 17.93025 111 ft 0 kts 71°
2026-05-06 18:31 59.65199 17.93015 109 ft 2 kts 71°
2026-05-06 18:32 59.65194 17.92987 109 ft 2 kts 71°
2026-05-06 18:32 59.65188 17.92948 108 ft 3 kts 90°
2026-05-06 18:32 59.65193 17.92906 109 ft 3 kts 122°
2026-05-06 18:32 59.65206 17.92870 109 ft 3 kts 122°
2026-05-06 18:33 59.65216 17.92831 108 ft 3 kts 113°
2026-05-06 18:33 59.65224 17.92791 109 ft 3 kts 113°
2026-05-06 18:33 59.65227 17.92781 109 ft 0 kts 113°
2026-05-06 18:35 59.65228 17.92785 109 ft 0 kts 85°
2026-05-06 18:35 59.65236 17.92796 109 ft 3 kts 37°
2026-05-06 18:36 59.65274 17.92795 111 ft 8 kts 347°
2026-05-06 18:36 59.65335 17.92721 111 ft 13 kts 337°
2026-05-06 18:36 59.65437 17.92622 109 ft 20 kts 332°
2026-05-06 18:36 59.65595 17.92496 103 ft 28 kts 346°
2026-05-06 18:37 59.65799 17.92436 105 ft 31 kts
2026-05-06 18:37 59.65943 17.92483 108 ft 32 kts 10°
2026-05-06 18:37 59.66220 17.92589 112 ft 30 kts 11°
2026-05-06 18:37 59.66400 17.92650 119 ft 19 kts
2026-05-06 18:38 59.66517 17.92619 122 ft 14 kts 343°
2026-05-06 18:38 59.66604 17.92530 124 ft 15 kts 304°
2026-05-06 18:38 59.66611 17.92383 120 ft 7 kts 206°
2026-05-06 18:38 59.66543 17.92343 123 ft 24 kts 191°
2026-05-06 18:39 59.66137 17.92196 119 ft 92 kts 190°
2026-05-06 18:39 59.65324 17.91905 105 ft 142 kts 190°
2026-05-06 18:39 59.64321 17.91486 577 ft 145 kts 187°
2026-05-06 18:40 59.62293 17.91041 1804 ft 149 kts 185°
2026-05-06 18:40 59.61233 17.90775 2233 ft 164 kts 190°
2026-05-06 18:40 59.60079 17.90151 2654 ft 182 kts 202°
2026-05-06 18:40 59.58995 17.88593 3066 ft 206 kts 226°
2026-05-06 18:41 59.58306 17.85916 3469 ft 235 kts 258°
2026-05-06 18:41 59.58345 17.82757 4616 ft 222 kts 270°
2026-05-06 18:41 59.58178 17.79726 5634 ft 223 kts 252°
2026-05-06 18:41 59.57547 17.76846 6392 ft 236 kts 243°
2026-05-06 18:42 59.56671 17.73959 6961 ft 255 kts 235°
2026-05-06 18:42 59.55910 17.72125 7381 ft 265 kts 227°
2026-05-06 18:42 59.54597 17.69531 8306 ft 269 kts 227°
2026-05-06 18:42 59.52847 17.66019 9570 ft 273 kts 228°
2026-05-06 18:43 59.51518 17.63319 10417 ft 279 kts 228°
2026-05-06 18:43 59.50120 17.60458 10805 ft 300 kts 228°
2026-05-06 18:43 59.49118 17.58408 11034 ft 315 kts 228°
2026-05-06 18:43 59.47062 17.54215 11942 ft 324 kts 228°
2026-05-06 18:44 59.46020 17.52097 12538 ft 326 kts 227°
2026-05-06 18:44 59.44437 17.48883 13402 ft 329 kts 227°
2026-05-06 18:44 59.42838 17.45641 14202 ft 332 kts 227°
2026-05-06 18:44 59.41225 17.42375 14961 ft 334 kts 227°
2026-05-06 18:45 59.39600 17.39088 15721 ft 336 kts 227°
2026-05-06 18:45 59.37964 17.35784 16465 ft 339 kts 227°
2026-05-06 18:45 59.36307 17.32443 17204 ft 342 kts 227°
2026-05-06 18:45 59.34642 17.29089 17940 ft 345 kts 227°
2026-05-06 18:46 59.32962 17.25708 18610 ft 347 kts 227°
2026-05-06 18:46 59.31273 17.22318 19284 ft 348 kts 228°
2026-05-06 18:46 59.29599 17.18961 19954 ft 349 kts 228°
2026-05-06 18:46 59.27897 17.15554 20622 ft 351 kts 228°
2026-05-06 18:47 59.26185 17.12132 21268 ft 352 kts 228°
2026-05-06 18:47 59.24467 17.08701 21913 ft 354 kts 228°
2026-05-06 18:47 59.22738 17.05256 22548 ft 356 kts 228°
2026-05-06 18:47 59.20992 17.01805 23189 ft 358 kts 227°
2026-05-06 18:48 59.19109 16.98585 23764 ft 362 kts 223°
2026-05-06 18:48 59.17168 16.95442 24295 ft 363 kts 223°
2026-05-06 18:48 59.15230 16.92295 24822 ft 364 kts 223°
2026-05-06 18:48 59.13286 16.89137 25348 ft 365 kts 223°
2026-05-06 18:49 59.11332 16.85967 25850 ft 366 kts 223°
2026-05-06 18:49 59.09372 16.82791 26341 ft 367 kts 223°
2026-05-06 18:49 59.07405 16.79608 26821 ft 369 kts 223°
2026-05-06 18:49 59.05429 16.76414 27281 ft 370 kts 222°
2026-05-06 18:50 59.03451 16.73224 27740 ft 371 kts 222°
2026-05-06 18:50 59.01457 16.70013 28167 ft 373 kts 222°
2026-05-06 18:50 58.99455 16.66796 28588 ft 374 kts 222°
2026-05-06 18:50 58.97473 16.63614 28991 ft 376 kts 222°
2026-05-06 18:51 58.95427 16.60336 29392 ft 377 kts 222°
2026-05-06 18:51 58.93396 16.57086 29768 ft 379 kts 221°
2026-05-06 18:51 58.91361 16.53837 30131 ft 380 kts 221°
2026-05-06 18:51 58.89342 16.50616 30431 ft 382 kts 221°
2026-05-06 18:52 58.87282 16.47336 30707 ft 385 kts 221°
2026-05-06 18:52 58.85203 16.44034 30994 ft 387 kts 221°
2026-05-06 18:52 58.83120 16.40730 31337 ft 388 kts 221°
2026-05-06 18:52 58.81031 16.37422 31731 ft 387 kts 221°
2026-05-06 18:53 58.78947 16.34128 32113 ft 387 kts 221°
2026-05-06 18:53 58.76869 16.30846 32509 ft 386 kts 221°
2026-05-06 18:53 58.74788 16.27565 32865 ft 386 kts 221°
2026-05-06 18:53 58.72710 16.24295 33200 ft 386 kts 221°
2026-05-06 18:54 58.70629 16.21027 33564 ft 385 kts 220°
2026-05-06 18:54 58.68558 16.17779 33905 ft 385 kts 220°
2026-05-06 18:54 58.66471 16.14511 34190 ft 385 kts 220°
2026-05-06 18:54 58.64385 16.11249 34371 ft 387 kts 220°
2026-05-06 18:55 58.62314 16.08017 34560 ft 389 kts 220°
2026-05-06 18:55 58.60210 16.04739 34757 ft 390 kts 220°
2026-05-06 18:55 58.58096 16.01450 34944 ft 392 kts 220°
2026-05-06 18:55 58.55973 15.98152 35131 ft 393 kts 220°
2026-05-06 18:56 58.53837 15.94838 35312 ft 395 kts 220°
2026-05-06 18:56 58.51697 15.91525 35474 ft 396 kts 220°
2026-05-06 18:56 58.49547 15.88203 35656 ft 397 kts 220°
2026-05-06 18:56 58.47395 15.84881 35830 ft 399 kts 220°
2026-05-06 18:57 58.45228 15.81543 36002 ft 400 kts 220°
2026-05-06 18:57 58.43089 15.78252 36170 ft 401 kts 220°
2026-05-06 18:57 58.40913 15.74911 36329 ft 402 kts 220°
2026-05-06 18:57 58.38731 15.71564 36503 ft 403 kts 220°
2026-05-06 18:58 58.36545 15.68217 36668 ft 404 kts 220°
2026-05-06 18:58 58.34345 15.64853 36818 ft 405 kts 220°
2026-05-06 18:58 58.32143 15.61493 36977 ft 406 kts 220°
2026-05-06 18:58 58.29934 15.58127 37122 ft 407 kts 220°
2026-05-06 18:59 58.27721 15.54761 37276 ft 408 kts 220°
2026-05-06 18:59 58.25498 15.51385 37419 ft 409 kts 220°
2026-05-06 18:59 58.23276 15.48016 37570 ft 410 kts 220°
2026-05-06 18:59 58.21044 15.44639 37713 ft 411 kts 220°
2026-05-06 19:00 58.18811 15.41263 37851 ft 411 kts 220°
2026-05-06 19:00 58.16571 15.37884 37965 ft 412 kts 220°
2026-05-06 19:00 58.14328 15.34507 37970 ft 412 kts 220°
2026-05-06 19:01 58.09848 15.27776 37964 ft 411 kts 220°
2026-05-06 19:01 58.05363 15.21065 37966 ft 411 kts 220°
2026-05-06 19:02 58.00878 15.14374 37966 ft 411 kts 220°
2026-05-06 19:02 57.96414 15.07733 37966 ft 411 kts 220°
2026-05-06 19:03 57.91922 15.01076 37962 ft 411 kts 220°
2026-05-06 19:03 57.87421 14.94427 37961 ft 411 kts 220°
2026-05-06 19:04 57.82921 14.87801 37955 ft 411 kts 220°
2026-05-06 19:04 57.78415 14.81187 37958 ft 411 kts 220°
2026-05-06 19:05 57.73895 14.74576 37954 ft 411 kts 220°
2026-05-06 19:05 57.69416 14.68044 37945 ft 411 kts 220°
2026-05-06 19:06 57.64901 14.61483 37942 ft 411 kts 220°
2026-05-06 19:06 57.60379 14.54930 37938 ft 411 kts 220°
2026-05-06 19:07 57.55854 14.48396 37939 ft 412 kts 220°
2026-05-06 19:07 57.51317 14.41866 37946 ft 412 kts 219°
2026-05-06 19:08 57.46773 14.35346 37942 ft 413 kts 219°
2026-05-06 19:08 57.42225 14.28841 37945 ft 413 kts 219°
2026-05-06 19:09 57.37667 14.22344 37950 ft 413 kts 219°
2026-05-06 19:09 57.33094 14.15845 37940 ft 414 kts 219°
2026-05-06 19:10 57.28515 14.09361 37935 ft 414 kts 219°
2026-05-06 19:10 57.23959 14.02928 37942 ft 414 kts 219°
2026-05-06 19:11 57.19378 13.96481 37690 ft 414 kts 219°
2026-05-06 19:11 57.17095 13.93275 37421 ft 411 kts 219°
2026-05-06 19:11 57.14829 13.90096 37153 ft 409 kts 219°
2026-05-06 19:11 57.12565 13.86927 36884 ft 409 kts 219°
2026-05-06 19:12 57.10296 13.83758 36415 ft 410 kts 219°
2026-05-06 19:12 57.08025 13.80591 35791 ft 409 kts 219°
2026-05-06 19:12 57.05762 13.77440 35179 ft 407 kts 219°
2026-05-06 19:12 57.03539 13.74348 34581 ft 406 kts 219°
2026-05-06 19:13 57.01293 13.71230 33998 ft 403 kts 219°
2026-05-06 19:13 56.99057 13.68130 33306 ft 401 kts 219°
2026-05-06 19:13 56.96836 13.65055 32619 ft 399 kts 218°
2026-05-06 19:13 56.94621 13.61993 31954 ft 398 kts 218°
2026-05-06 19:14 56.92404 13.58933 31307 ft 401 kts 218°
2026-05-06 19:14 56.90162 13.55842 30672 ft 405 kts 218°
2026-05-06 19:14 56.87905 13.52736 30049 ft 406 kts 218°
2026-05-06 19:14 56.85655 13.49647 29330 ft 403 kts 218°
2026-05-06 19:15 56.83422 13.46587 28627 ft 399 kts 218°
2026-05-06 19:15 56.81207 13.43555 27950 ft 396 kts 218°
2026-05-06 19:15 56.79006 13.40546 27285 ft 393 kts 218°
2026-05-06 19:15 56.76831 13.37577 26705 ft 388 kts 219°
2026-05-06 19:16 56.74680 13.34646 26144 ft 384 kts 219°
2026-05-06 19:16 56.72549 13.31743 25580 ft 382 kts 219°
2026-05-06 19:16 56.70423 13.28846 25007 ft 381 kts 219°
2026-05-06 19:16 56.68302 13.25954 24461 ft 380 kts 219°
2026-05-06 19:17 56.66193 13.23083 23911 ft 377 kts 219°
2026-05-06 19:17 56.64104 13.20243 23343 ft 374 kts 219°
2026-05-06 19:17 56.62051 13.17462 22713 ft 372 kts 219°
2026-05-06 19:17 56.59978 13.14665 22085 ft 371 kts 219°
2026-05-06 19:18 56.57909 13.11879 21483 ft 368 kts 219°
2026-05-06 19:18 56.55856 13.09118 20876 ft 366 kts 219°
2026-05-06 19:18 56.53817 13.06379 20292 ft 363 kts 219°
2026-05-06 19:18 56.51796 13.03666 19721 ft 362 kts 219°
2026-05-06 19:19 56.49773 13.00955 19159 ft 361 kts 219°
2026-05-06 19:19 56.47757 12.98256 18599 ft 359 kts 218°
2026-05-06 19:19 56.45747 12.95570 18035 ft 358 kts 218°
2026-05-06 19:19 56.43748 12.92902 17396 ft 356 kts 218°
2026-05-06 19:20 56.41756 12.90246 16781 ft 355 kts 218°
2026-05-06 19:20 56.39772 12.87606 16181 ft 353 kts 218°
2026-05-06 19:20 56.37798 12.84982 15591 ft 352 kts 218°
2026-05-06 19:20 56.35825 12.82362 15015 ft 351 kts 218°
2026-05-06 19:21 56.33862 12.79759 14446 ft 350 kts 218°
2026-05-06 19:21 56.31903 12.77165 13891 ft 349 kts 218°
2026-05-06 19:21 56.29952 12.74583 13282 ft 348 kts 218°
2026-05-06 19:21 56.28033 12.72047 12674 ft 346 kts 217°
2026-05-06 19:22 56.26093 12.69488 12069 ft 345 kts 217°
2026-05-06 19:22 56.24158 12.66939 11482 ft 344 kts 217°
2026-05-06 19:22 56.22229 12.64401 10902 ft 343 kts 217°
2026-05-06 19:22 56.20298 12.61865 10318 ft 342 kts 217°
2026-05-06 19:23 56.18373 12.59382 9751 ft 341 kts 213°
2026-05-06 19:23 56.16201 12.57836 9121 ft 333 kts 190°
2026-05-06 19:23 56.13932 12.57859 8592 ft 324 kts 168°
2026-05-06 19:23 56.11833 12.59148 8062 ft 314 kts 158°
2026-05-06 19:24 56.09839 12.60589 7614 ft 304 kts 158°
2026-05-06 19:24 56.07916 12.61981 7229 ft 292 kts 158°
2026-05-06 19:24 56.06063 12.63317 6852 ft 282 kts 158°
2026-05-06 19:24 56.04270 12.64605 6487 ft 276 kts 158°
2026-05-06 19:25 56.02475 12.65890 6104 ft 278 kts 158°
2026-05-06 19:25 56.00677 12.67175 5705 ft 278 kts 158°
2026-05-06 19:25 55.98902 12.68441 5308 ft 269 kts 157°
2026-05-06 19:25 55.97197 12.69655 4973 ft 259 kts 157°
2026-05-06 19:26 55.95549 12.70827 4634 ft 250 kts 157°
2026-05-06 19:26 55.93975 12.71945 4302 ft 242 kts 157°
2026-05-06 19:26 55.92417 12.73051 3954 ft 233 kts 157°
2026-05-06 19:26 55.90955 12.74087 3617 ft 228 kts 157°
2026-05-06 19:27 55.89475 12.75139 3289 ft 228 kts 156°
2026-05-06 19:27 55.88026 12.76168 3039 ft 218 kts 157°
2026-05-06 19:27 55.86662 12.77133 2987 ft 204 kts 157°
2026-05-06 19:27 55.85370 12.78035 3001 ft 202 kts 157°
2026-05-06 19:28 55.84067 12.78939 2990 ft 198 kts 157°
2026-05-06 19:28 55.82831 12.79790 3012 ft 181 kts 157°
2026-05-06 19:28 55.81664 12.80582 2989 ft 181 kts 157°
2026-05-06 19:28 55.80494 12.81376 2990 ft 180 kts 157°
2026-05-06 19:29 55.79324 12.82168 2993 ft 180 kts 157°
2026-05-06 19:29 55.78152 12.82961 2991 ft 180 kts 157°
2026-05-06 19:29 55.76981 12.83745 2994 ft 179 kts 157°
2026-05-06 19:29 55.75805 12.84490 2995 ft 180 kts 164°
2026-05-06 19:30 55.74562 12.84459 2998 ft 186 kts 193°
2026-05-06 19:30 55.73391 12.83455 2935 ft 189 kts 211°
2026-05-06 19:30 55.72346 12.82021 2697 ft 190 kts 218°
2026-05-06 19:30 55.71372 12.80475 2436 ft 184 kts 219°
2026-05-06 19:31 55.70410 12.78984 2177 ft 184 kts 219°
2026-05-06 19:31 55.69792 12.78016 2005 ft 173 kts 218°
2026-05-06 19:31 55.68059 12.75324 1540 ft 164 kts 218°
2026-05-06 19:32 55.67235 12.74039 1345 ft 150 kts 218°
2026-05-06 19:32 55.66483 12.72872 1124 ft 137 kts 218°
2026-05-06 19:32 55.65775 12.71773 925 ft 135 kts 218°
2026-05-06 19:32 55.65076 12.70686 721 ft 131 kts 217°
2026-05-06 19:33 55.64398 12.69636 550 ft 130 kts 218°
2026-05-06 19:33 55.63721 12.68584 369 ft 129 kts 218°
2026-05-06 19:33 55.63051 12.67549 204 ft 127 kts 218°
2026-05-06 19:33 55.62384 12.66529 28 ft 126 kts 218°
2026-05-06 19:34 55.61841 12.65687 30 ft 65 kts 220°
2026-05-06 19:34 55.61677 12.65421 23 ft 23 kts 226°
2026-05-06 19:34 55.61614 12.65147 24 ft 21 kts 263°
2026-05-06 19:34 55.61633 12.64997 24 ft 5 kts 298°
2026-05-06 19:35 55.61634 12.64994 24 ft 2 kts 300°
2026-05-06 19:35 55.61671 12.64908 23 ft 13 kts 311°
2026-05-06 19:35 55.61753 12.64803 24 ft 16 kts 337°
2026-05-06 19:35 55.61785 12.64790 26 ft 0 kts 352°
2026-05-06 19:41 55.61823 12.64787 25 ft 12 kts
2026-05-06 19:41 55.61934 12.64855 25 ft 22 kts 31°
2026-05-06 19:42 55.62082 12.65033 26 ft 30 kts 34°
2026-05-06 19:42 55.62244 12.65156 23 ft 14 kts 333°
2026-05-06 19:42 55.62271 12.65087 25 ft 14 kts 307°
2026-05-06 19:42 55.62338 12.64912 24 ft 19 kts 303°
2026-05-06 19:43 55.62418 12.64700 23 ft 22 kts 302°
2026-05-06 19:43 55.62505 12.64457 23 ft 24 kts 303°
2026-05-06 19:43 55.62578 12.64281 25 ft 14 kts 325°
2026-05-06 19:43 55.62658 12.64297 27 ft 8 kts 20°
2026-05-06 19:44 55.62679 12.64378 23 ft 6 kts 94°
2026-05-06 19:44 55.62675 12.64431 27 ft 0 kts 99°